Preview of NWS' New Version of Forecast
This preview is not operational and should not be used for support decisions.

Regional Weather Roundup (RWR)

Issued by National Weather Service (NWS)

                            
000
ASUS45 KABQ 191810
RWRNM 
NEW MEXICO REGIONAL WEATHER ROUNDUP
NATIONAL WEATHER SERVICE ALBUQUERQUE NM
1200 PM MDT FRI APR 19 2019

NOTE: "FAIR" MEANS FEW OR NO CLOUDS BELOW 12,000 FEET AGL WITH NO
       SIGNIFICANT WEATHER OR OBSTRUCTIONS TO VISION.

      THIS PRODUCT IS RELEASED AS TWO VERSIONS.  ONE VERSION NEAR
      THE TOP OF THE HOUR CONTAINING PRELIMINARY DATA FROM ALBUQUERQUE
      AND OTHER STATIONS.  A FINAL VERSION WITH ADDITIONAL DATA IS 
      ISSUED ABOUT 10 MINUTES AFTER THE HOUR.
 
NMZ501-503-504-510>518-191900-
NORTHWEST PLATEAU/NORTHCENTRAL MOUNTAINS
  
CITY           SKY/WX    TMP DP  RH WIND       PRES   REMARKS
FARMINGTON     FAIR      67  24  19 W7        30.23F                  
6HR MIN TEMP:  34; 6HR MAX TEMP:  68;                                

LOS ALAMOS       N/A     59  22  23 E5        30.32F                  
SANTA FE       FAIR      66  30  26 SW10      30.27F                  
6HR MIN TEMP:  32; 6HR MAX TEMP:  66;                                

TAOS           FAIR      61  22  22 VRB3      30.32F                  
ANGEL FIRE       N/A     55  28  34 W15       30.33F                  

$$
NMZ402-403-502-505>509-191900-
WESTCENTRAL MOUNTAINS/SOUTHWEST MOUNTAINS
  
CITY           SKY/WX    TMP DP  RH WIND       PRES   REMARKS
GALLUP         FAIR      67  22  18 MISG      30.30F                  
6HR MIN TEMP:  26; 6HR MAX TEMP:  67;                                

GRANTS         FAIR      65  22  19 N5G16     30.32S                  
SILVER CITY    FAIR      75  22  13 S9        30.26F                  

$$
NMZ407-409-411-412-191900-
SOUTHERN DESERTS
  
CITY           SKY/WX    TMP DP  RH WIND       PRES   REMARKS
DEMING         FAIR      76  26  15 E13       30.21F                  
6HR MIN TEMP:  42; 6HR MAX TEMP:  76;                                

LAS CRUCES     FAIR      74  28  18 SE8       30.24F                  
HOLLOMAN AFB   FAIR      70  34  27 S7        30.25F                  
ALAMOGORDO     FAIR      68  36  30 S10       30.25F                  
T OR C         FAIR      74  26  16 VRB6      30.23F                  
6HR MIN TEMP:  51; 6HR MAX TEMP:  74;                                


$$
NMZ519>523-191900-
CENTRAL VALLEYS/CENTRAL HIGHLANDS
  
CITY           SKY/WX    TMP DP  RH WIND       PRES   REMARKS
ALBUQUERQUE    FAIR      64  31  28 CALM      30.26F                  
6HR MIN TEMP:  47; 6HR MAX TEMP:  64;                                

DOUBLE EAGLE   SUNNY     61  34  36 E6        30.29F                  
MORIARTY ARPT  FAIR      67  28  23 NW3       30.29F                  
6HR MIN TEMP:  31; 6HR MAX TEMP:  67;                                

CLINES CORNERS FAIR      64  25  22 NW14G23   30.30F                  
6HR MIN TEMP:  32; 6HR MAX TEMP:  64;                                

BELEN          FAIR      64  31  28 CALM      30.27F                  
6HR MIN TEMP:  41; 6HR MAX TEMP:  64;                                

SOCORRO        FAIR      67  32  26 NW3       30.25F                  
6HR MIN TEMP:  41; 6HR MAX TEMP:  67;                                


$$
NMZ524>526-539-540-191900-
SOUTHCENTRAL MOUNTAINS
  
CITY           SKY/WX    TMP DP  RH WIND       PRES   REMARKS
RUIDOSO        FAIR      64  25  22 W3        30.32F                  

$$
NMZ527>531-191900-
NORTHEAST HIGHLANDS/NORTHEAST PLAINS
  
CITY           SKY/WX    TMP DP  RH WIND       PRES   REMARKS
LAS VEGAS      FAIR      63  24  22 VRB5      30.26F                  
6HR MIN TEMP:  31; 6HR MAX TEMP:  63;                                

RATON          FAIR      62  35  36 S10       30.22F                  
6HR MIN TEMP:  29; 6HR MAX TEMP:  63;                                

CLAYTON        FAIR      63  34  33 VRB5G21   30.20F                  
6HR MIN TEMP:  33; 6HR MAX TEMP:  63;                                


$$
NMZ532>537-191900-
EASTCENTRAL PLAINS
  
CITY           SKY/WX    TMP DP  RH WIND       PRES   REMARKS
SANTA ROSA     FAIR      66  31  27 S15       30.22F                  
TUCUMCARI      FAIR      67  35  30 W14       30.20F                  
6HR MIN TEMP:  37; 6HR MAX TEMP:  67;                                

CANNON AFB     FAIR      61  28  29 SW9       30.26F                  
6HR MIN TEMP:  36; 6HR MAX TEMP:  61;                                

CLOVIS AIRPORT FAIR      62  30  29 SW5       30.26F                  

$$
NMZ028-029-538-191900-
SOUTHEAST PLAINS
  
CITY           SKY/WX    TMP DP  RH WIND       PRES   REMARKS
ROSWELL        FAIR      67  30  25 S10       30.23F                  
6HR MIN TEMP:  43; 6HR MAX TEMP:  68;                                

ARTESIA        FAIR      66  30  26 S10G20    30.25F                  
CARLSBAD       FAIR      66  30  26 S13       30.24F                  
6HR MIN TEMP:  44; 6HR MAX TEMP:  67;                                

HOBBS          SUNNY     66  25  20 VRB6      30.27F                  


$$